WB4FAY-4 Weather Reports


Display with metric or nautical units.
time (UTC)temp
F
wind
direction
speed
MPH
gust
MPH
rain 1hr
in
rain 24hr
in
rain mn
in
humidity
%
barometer
mb
20260506011018 73 0 0.0 0.0 0.00 0.00 0.00 64 1012.6
20260506010518 73 0 0.0 0.0 0.00 0.00 0.00 63 1012.6
20260506010018 73 0 0.0 0.0 0.00 0.00 0.00 62 1012.5
20260506005518 73 0 0.0 0.0 0.00 0.00 0.00 61 1012.5
20260506005018 74 0 0.0 0.0 0.00 0.00 0.00 60 1012.6
20260506004518 74 0 0.0 0.0 0.00 0.00 0.00 60 1012.4
20260506004018 75 0 0.0 0.0 0.00 0.00 0.00 59 1012.3
20260506003518 75 0 0.0 0.0 0.00 0.00 0.00 58 1012.2
20260506003017 75 0 0.0 0.0 0.00 0.00 0.00 57 1012.2
20260506002518 75 0 0.0 0.0 0.00 0.00 0.00 57 1012.3
20260506002018 76 0 0.0 0.0 0.00 0.00 0.00 57 1012.4
20260506001518 76 0 0.0 0.0 0.00 0.00 0.00 57 1012.5
20260506001018 76 0 0.0 0.0 0.00 0.00 0.00 56 1012.6
20260506000518 76 0 0.0 0.0 0.00 0.00 0.00 56 1012.8
20260506000017 76 0 0.0 0.0 0.00 0.00 0.00 56 1012.8
20260505235518 76 0 0.0 0.0 0.00 0.00 0.00 56 1012.7
20260505235017 76 0 0.0 0.0 0.00 0.00 0.00 55 1012.6
20260505234517 76 0 0.0 0.0 0.00 0.00 0.00 55 1012.5
20260505234017 76 0 0.0 0.0 0.00 0.00 0.00 55 1012.6
20260505233517 76 0 0.0 0.0 0.00 0.00 0.00 54 1012.7
20260505233017 76 0 0.0 0.0 0.00 0.00 0.00 54 1012.8
20260505232517 77 0 0.0 0.0 0.00 0.00 0.00 54 1012.9
20260505232018 77 0 0.0 0.0 0.00 0.00 0.00 54 1013.0
20260505231518 77 0 0.0 0.0 0.00 0.00 0.00 54 1012.9
20260505231018 77 182 0.0 4.0 0.00 0.00 0.00 53 1013.0
20260505230518 77 248 0.0 4.0 0.00 0.00 0.00 54 1012.9
20260505230017 77 196 0.0 4.0 0.00 0.00 0.00 54 1013.0
20260505225518 77 191 0.0 4.0 0.00 0.00 0.00 54 1013.0
20260505225017 77 186 2.0 3.0 0.00 0.00 0.00 53 1013.1
20260505224517 77 179 0.0 3.0 0.00 0.00 0.00 53 1013.2
20260505224017 77 227 0.0 3.0 0.00 0.00 0.00 54 1013.1
20260505223517 77 205 0.0 6.0 0.00 0.00 0.00 53 1013.1
20260505223018 77 260 4.0 3.0 0.00 0.00 0.00 53 1013.1
20260505222517 77 192 3.0 4.0 0.00 0.00 0.00 53 1013.1
20260505222017 77 230 0.0 4.0 0.00 0.00 0.00 53 1013.1
20260505221517 77 199 1.0 8.0 0.00 0.00 0.00 53 1013.1
20260505221017 77 193 0.0 8.0 0.00 0.00 0.00 53 1013.1
20260505220517 77 258 1.0 5.0 0.00 0.00 0.00 53 1013.1
20260505220017 77 263 1.0 5.0 0.00 0.00 0.00 52 1013.1
20260505215517 77 198 0.0 8.0 0.00 0.00 0.00 52 1013.1
20260505215017 77 178 4.0 10.0 0.00 0.00 0.00 51 1013.2
20260505214517 77 232 2.0 5.0 0.00 0.00 0.00 52 1013.2
20260505214017 77 215 4.0 3.0 0.00 0.00 0.00 54 1013.2
20260505213517 77 200 0.0 5.0 0.00 0.00 0.00 53 1013.2
20260505213018 77 203 0.0 7.0 0.00 0.00 0.00 52 1013.2
20260505212517 78 229 0.0 6.0 0.00 0.00 0.00 51 1013.2
20260505212018 78 251 4.0 8.0 0.00 0.00 0.00 51 1013.1
20260505211517 78 205 4.0 6.0 0.00 0.00 0.00 52 1013.0
20260505211017 78 308 0.0 6.0 0.00 0.00 0.00 50 1013.1
20260505210518 78 196 1.0 9.0 0.00 0.00 0.00 52 1013.1
20260505210017 78 233 3.0 8.0 0.00 0.00 0.00 51 1013.1
20260505205517 78 210 2.0 5.0 0.00 0.00 0.00 51 1013.1
20260505205016 78 188 3.0 9.0 0.00 0.00 0.00 50 1013.3
20260505204517 78 224 7.0 10.0 0.00 0.00 0.00 51 1013.3
20260505204018 77 222 5.0 9.0 0.00 0.00 0.00 51 1013.1
20260505203517 77 206 8.0 7.0 0.00 0.00 0.00 50 1013.3
20260505203017 77 261 5.0 6.0 0.00 0.00 0.00 55 1013.3
20260505202517 77 203 3.0 5.0 0.00 0.00 0.00 54 1013.3
20260505202017 77 234 0.0 4.0 0.00 0.00 0.00 53 1013.3
20260505201517 77 0 0.0 0.0 0.00 0.00 0.00 54 1013.6
20260505201017 77 196 0.0 6.0 0.00 0.00 0.00 53 1013.7
20260505200517 76 196 4.0 5.0 0.00 0.00 0.00 56 1013.8
20260505200017 76 223 0.0 6.0 0.00 0.00 0.00 55 1014.0
20260505195518 76 239 4.0 6.0 0.00 0.00 0.00 53 1014.0
20260505195017 76 268 0.0 7.0 0.00 0.00 0.00 55 1014.1
20260505194517 76 234 0.0 9.0 0.00 0.00 0.00 53 1014.2
20260505194018 76 258 0.0 3.0 0.00 0.00 0.00 57 1014.1
20260505193517 76 257 1.0 3.0 0.00 0.00 0.00 53 1014.2
20260505193017 77 265 1.0 5.0 0.00 0.00 0.00 54 1014.4
20260505192517 76 62 3.0 4.0 0.00 0.00 0.00 56 1014.2
20260505192017 76 257 0.0 4.0 0.00 0.00 0.00 56 1014.2
20260505191517 76 241 2.0 4.0 0.00 0.00 0.00 55 1014.3
20260505191018 76 274 2.0 4.0 0.00 0.00 0.00 57 1014.4
20260505190517 75 232 4.0 5.0 0.00 0.00 0.00 55 1014.5
20260505190017 75 325 0.0 5.0 0.00 0.00 0.00 53 1014.6
20260505185517 75 296 0.0 4.0 0.00 0.00 0.00 55 1014.6
20260505185017 75 248 0.0 6.0 0.00 0.00 0.00 55 1014.7
20260505184517 75 234 0.0 4.0 0.00 0.00 0.00 57 1014.8
20260505184017 75 185 0.0 4.0 0.00 0.00 0.00 55 1014.8
20260505183517 75 288 2.0 5.0 0.00 0.00 0.00 57 1014.8
20260505183018 75 41 1.0 6.0 0.00 0.00 0.00 59 1014.9
20260505182517 74 329 0.0 3.0 0.00 0.00 0.00 59 1015.0
20260505182017 74 219 0.0 10.0 0.00 0.00 0.00 58 1015.0
20260505181517 74 198 0.0 9.0 0.00 0.00 0.00 56 1015.0
20260505181017 74 213 5.0 7.0 0.00 0.00 0.00 53 1015.1
20260505180517 74 209 4.0 6.0 0.00 0.00 0.00 58 1015.2
20260505180017 74 250 2.0 5.0 0.00 0.00 0.00 56 1015.2
20260505175517 74 217 0.0 6.0 0.00 0.00 0.00 57 1015.2
20260505175019 74 182 0.0 7.0 0.00 0.00 0.00 58 1015.3
20260505174519 74 206 2.0 5.0 0.00 0.00 0.00 59 1015.5
20260505174019 73 278 4.0 5.0 0.00 0.00 0.00 57 1015.5
20260505173519 73 226 2.0 6.0 0.00 0.00 0.00 58 1015.6
20260505173019 73 232 0.0 5.0 0.00 0.00 0.00 56 1015.6
20260505172518 74 213 0.0 6.0 0.00 0.00 0.00 57 1015.6
20260505172019 74 35 2.0 8.0 0.00 0.00 0.00 57 1015.6
20260505171519 73 322 0.0 3.0 0.00 0.00 0.00 60 1015.6
20260505171018 73 0 0.0 0.0 0.00 0.00 0.00 59 1015.8
20260505170519 73 217 0.0 7.0 0.00 0.00 0.00 59 1015.8
20260505170018 73 278 2.0 3.0 0.00 0.00 0.00 60 1015.9
20260505165519 73 219 0.0 5.0 0.00 0.00 0.00 57 1015.9
20260505165018 73 237 0.0 5.0 0.00 0.00 0.00 59 1016.0
20260505164518 73 195 2.0 4.0 0.00 0.00 0.00 59 1015.9
20260505164018 73 202 2.0 5.0 0.00 0.00 0.00 59 1015.9
20260505163518 72 230 2.0 7.0 0.00 0.00 0.00 58 1015.9
20260505163019 72 189 3.0 8.0 0.00 0.00 0.00 60 1015.9
20260505162518 71 205 4.0 7.0 0.00 0.00 0.00 59 1016.0
20260505162018 71 0 0.0 0.0 0.00 0.00 0.00 63 1015.9
20260505161518 71 196 0.0 7.0 0.00 0.00 0.00 62 1016.0
20260505161018 71 304 0.0 7.0 0.00 0.00 0.00 62 1016.0
20260505160518 71 195 1.0 7.0 0.00 0.00 0.00 61 1015.9
20260505153017 69 182 2.0 7.0 0.00 0.00 0.00 63 1016.1
20260505152518 70 233 0.0 6.0 0.00 0.00 0.00 65 1016.3
20260505152017 69 254 3.0 6.0 0.00 0.00 0.00 66 1016.3
20260505151518 69 199 0.0 4.0 0.00 0.00 0.00 65 1016.2
20260505151017 69 250 4.0 4.0 0.00 0.00 0.00 67 1016.2
20260505150517 69 302 3.0 6.0 0.00 0.00 0.00 66 1016.2
20260505140517 65 206 3.0 6.0 0.00 0.00 0.00 73 1016.4
20260505125017 59 0 0.0 0.0 0.00 0.00 0.00 89 1015.7
20260505124517 58 0 0.0 0.0 0.00 0.00 0.00 90 1015.6
20260505124017 58 0 0.0 0.0 0.00 0.00 0.00 91 1015.5
20260505123518 58 128 0.0 2.0 0.00 0.00 0.00 92 1015.4
20260505123017 57 0 0.0 0.0 0.00 0.00 0.00 92 1015.3
20260505122517 57 0 0.0 0.0 0.00 0.00 0.00 93 1015.2
20260505122018 56 157 0.0 1.0 0.00 0.00 0.00 93 1015.1
20260505121517 56 0 0.0 0.0 0.00 0.00 0.00 92 1015.1
20260505121018 56 0 0.0 0.0 0.00 0.00 0.00 93 1015.1
20260505120517 56 0 0.0 0.0 0.00 0.00 0.00 93 1015.3
20260505120017 55 0 0.0 0.0 0.00 0.00 0.00 92 1015.2
20260505115517 55 0 0.0 0.0 0.00 0.00 0.00 92 1015.1
20260505115017 55 0 0.0 0.0 0.00 0.00 0.00 92 1014.9
20260505114517 55 0 0.0 0.0 0.00 0.00 0.00 92 1015.0
20260505114018 55 0 0.0 0.0 0.00 0.00 0.00 92 1014.9
20260505113517 55 0 0.0 0.0 0.00 0.00 0.00 92 1015.0
20260505113017 55 0 0.0 0.0 0.00 0.00 0.00 92 1014.9
20260505112517 55 0 0.0 0.0 0.00 0.00 0.00 91 1014.7
20260505112017 55 0 0.0 0.0 0.00 0.00 0.00 91 1014.6
20260505111517 55 0 0.0 0.0 0.00 0.00 0.00 91 1014.6
20260505111017 55 0 0.0 0.0 0.00 0.00 0.00 91 1014.5
20260505110517 55 0 0.0 0.0 0.00 0.00 0.00 91 1014.4
20260505102017 56 0 0.0 0.0 0.00 0.00 0.00 88 1014.2
20260505101518 56 0 0.0 0.0 0.00 0.00 0.00 88 1014.3
20260505101018 56 0 0.0 0.0 0.00 0.00 0.00 88 1014.3
20260505100517 56 0 0.0 0.0 0.00 0.00 0.00 87 1014.4
20260505100018 56 0 0.0 0.0 0.00 0.00 0.00 87 1014.3
20260505095518 56 0 0.0 0.0 0.00 0.00 0.00 87 1014.3
20260505095017 56 0 0.0 0.0 0.00 0.00 0.00 86 1014.4
20260505094517 56 0 0.0 0.0 0.00 0.00 0.00 86 1014.4
20260505094017 57 0 0.0 0.0 0.00 0.00 0.00 86 1014.5
20260505093517 57 0 0.0 0.0 0.00 0.00 0.00 86 1014.5
20260505093017 57 0 0.0 0.0 0.00 0.00 0.00 85 1014.5
20260505092518 57 0 0.0 0.0 0.00 0.00 0.00 85 1014.4
20260505092018 57 0 0.0 0.0 0.00 0.00 0.00 85 1014.4
20260505091518 57 0 0.0 0.0 0.00 0.00 0.00 84 1014.6
20260505091017 58 0 0.0 0.0 0.00 0.00 0.00 84 1014.6
20260505090518 58 0 0.0 0.0 0.00 0.00 0.00 83 1014.6
20260505090017 58 0 0.0 0.0 0.00 0.00 0.00 83 1014.6
20260505085518 58 0 0.0 0.0 0.00 0.00 0.00 83 1014.7
20260505085017 58 0 0.0 0.0 0.00 0.00 0.00 82 1014.7
20260505084517 58 0 0.0 0.0 0.00 0.00 0.00 82 1014.6
20260505084017 58 0 0.0 0.0 0.00 0.00 0.00 82 1014.6
20260505083518 59 0 0.0 0.0 0.00 0.00 0.00 81 1014.6
20260505083018 59 0 0.0 0.0 0.00 0.00 0.00 81 1014.7
20260505082517 59 0 0.0 0.0 0.00 0.00 0.00 81 1014.8
20260505082017 59 0 0.0 0.0 0.00 0.00 0.00 80 1014.9
20260505081517 59 0 0.0 0.0 0.00 0.00 0.00 80 1014.9
20260505081018 59 0 0.0 0.0 0.00 0.00 0.00 79 1014.9
20260505080517 59 0 0.0 0.0 0.00 0.00 0.00 79 1014.9
20260505080018 59 0 0.0 0.0 0.00 0.00 0.00 79 1014.8
20260505075518 59 0 0.0 0.0 0.00 0.00 0.00 78 1014.9
20260505075017 59 0 0.0 0.0 0.00 0.00 0.00 78 1014.9
20260505074517 59 0 0.0 0.0 0.00 0.00 0.00 78 1015.0
20260505074017 59 0 0.0 0.0 0.00 0.00 0.00 78 1015.1
20260505073517 59 0 0.0 0.0 0.00 0.00 0.00 78 1015.2
20260505073018 59 0 0.0 0.0 0.00 0.00 0.00 78 1015.1
20260505072518 59 0 0.0 0.0 0.00 0.00 0.00 78 1015.0
20260505072017 59 0 0.0 0.0 0.00 0.00 0.00 78 1014.9
20260505071517 59 0 0.0 0.0 0.00 0.00 0.00 78 1014.9
20260505071018 59 281 0.0 2.0 0.00 0.00 0.00 78 1014.9
20260505070517 59 256 1.0 3.0 0.00 0.00 0.00 78 1014.8
20260505070017 59 227 0.0 2.0 0.00 0.00 0.00 78 1014.9
20260505065517 59 200 0.0 2.0 0.00 0.00 0.00 78 1014.9
20260505065017 59 251 0.0 2.0 0.00 0.00 0.00 78 1014.9
20260505064517 59 0 0.0 0.0 0.00 0.00 0.00 78 1014.9
20260505064017 59 0 0.0 0.0 0.00 0.00 0.00 77 1014.9
20260505063517 59 0 0.0 0.0 0.00 0.00 0.00 76 1015.0
20260505063017 59 0 0.0 0.0 0.00 0.00 0.00 76 1014.9
20260505062517 59 0 0.0 0.0 0.00 0.00 0.00 76 1015.0
20260505062018 59 0 0.0 0.0 0.00 0.00 0.00 75 1015.0
20260505061517 59 0 0.0 0.0 0.00 0.00 0.00 75 1015.0
20260505061017 60 0 0.0 0.0 0.00 0.00 0.00 75 1015.0
20260505060517 59 0 0.0 0.0 0.00 0.00 0.00 76 1015.1
20260505060017 60 0 0.0 0.0 0.00 0.00 0.00 76 1015.2
20260505055518 60 0 0.0 0.0 0.00 0.00 0.00 75 1015.2
20260505055017 60 313 0.0 1.0 0.00 0.00 0.00 75 1015.2
20260505054517 60 0 0.0 0.0 0.00 0.00 0.00 74 1015.1
20260505054017 60 0 0.0 0.0 0.00 0.00 0.00 74 1015.2
20260505053517 60 0 0.0 0.0 0.00 0.00 0.00 74 1015.1
20260505053017 60 0 0.0 0.0 0.00 0.00 0.00 73 1014.9
20260505052518 60 0 0.0 0.0 0.00 0.00 0.00 73 1015.0
20260505052017 61 0 0.0 0.0 0.00 0.00 0.00 73 1015.0
20260505051517 61 0 0.0 0.0 0.00 0.00 0.00 72 1014.9
20260505051018 61 263 0.0 3.0 0.00 0.00 0.00 72 1014.8
20260505050518 61 0 0.0 0.0 0.00 0.00 0.00 72 1014.7
20260505041518 62 0 0.0 0.0 0.00 0.00 0.00 70 1014.7
20260505041017 62 0 0.0 0.0 0.00 0.00 0.00 70 1014.8
20260505040517 62 0 0.0 0.0 0.00 0.00 0.00 70 1014.8
20260505040016 62 0 0.0 0.0 0.00 0.00 0.00 69 1014.8
20260505035517 62 0 0.0 0.0 0.00 0.00 0.00 69 1014.8
20260505035017 62 0 0.0 0.0 0.00 0.00 0.00 69 1014.8
20260505034517 62 0 0.0 0.0 0.00 0.00 0.00 69 1014.8
20260505034017 62 0 0.0 0.0 0.00 0.00 0.00 68 1014.8
20260505033517 62 0 0.0 0.0 0.00 0.00 0.00 68 1014.8
20260505033018 63 0 0.0 0.0 0.00 0.00 0.00 67 1014.8
20260505032517 63 0 0.0 0.0 0.00 0.00 0.00 67 1014.8
20260505032023 63 0 0.0 0.0 0.00 0.00 0.00 66 1014.7
20260505031517 63 0 0.0 0.0 0.00 0.00 0.00 66 1014.7
20260505031017 63 0 0.0 0.0 0.00 0.00 0.00 66 1014.6
20260505030517 63 0 0.0 0.0 0.00 0.00 0.00 65 1014.6
20260505030018 64 0 0.0 0.0 0.00 0.00 0.00 65 1014.6
20260505025517 64 0 0.0 0.0 0.00 0.00 0.00 65 1014.6
20260505025017 64 0 0.0 0.0 0.00 0.00 0.00 65 1014.7
20260505024517 64 0 0.0 0.0 0.00 0.00 0.00 64 1014.7
20260505024018 64 0 0.0 0.0 0.00 0.00 0.00 63 1014.7
20260505023517 65 0 0.0 0.0 0.00 0.00 0.00 63 1014.7
20260505023017 65 0 0.0 0.0 0.00 0.00 0.00 62 1014.7
20260505022517 65 0 0.0 0.0 0.00 0.00 0.00 62 1014.7
20260505022017 65 0 0.0 0.0 0.00 0.00 0.00 60 1014.6
20260505021518 66 0 0.0 0.0 0.00 0.00 0.00 59 1014.6
20260505021017 66 0 0.0 0.0 0.00 0.00 0.00 58 1014.6
20260505020517 66 0 0.0 0.0 0.00 0.00 0.00 58 1014.5
20260505020017 67 0 0.0 0.0 0.00 0.00 0.00 57 1014.3
20260505015517 67 0 0.0 0.0 0.00 0.00 0.00 56 1014.4
20260505015017 68 0 0.0 0.0 0.00 0.00 0.00 55 1014.3
20260505014517 68 0 0.0 0.0 0.00 0.00 0.00 54 1014.3
20260505014017 69 0 0.0 0.0 0.00 0.00 0.00 52 1014.2
20260505013517 69 0 0.0 0.0 0.00 0.00 0.00 52 1014.2
20260505013018 69 0 0.0 0.0 0.00 0.00 0.00 51 1014.2
20260505012517 70 0 0.0 0.0 0.00 0.00 0.00 50 1014.2
20260505012018 70 0 0.0 0.0 0.00 0.00 0.00 50 1014.1
20260505011517 71 0 0.0 0.0 0.00 0.00 0.00 49 1014.1